User: anonymous   Login
Location: Gwatt
(46.7204°N, 7.6223°E)
Time: 15:22:55
(UTC+00:00)
Language:

Explorer 7 - Orbit

View from above orbital plane
View from above orbital plane
View from above satellite
View from above satellite

Ground track
Ground track

The orbit data is extracted from the following two-line orbital elements,

1    22U 59009A   21023.44337228  .00000021  00000-0  24849-4 0  9992
2    22  50.2834 149.7022 0138847  19.3818 341.2337 14.95387335258246
Epoch (UTC): 23 January 2021 10:38:27
Eccentricity: 0.0138847
inclination: 50.2834°
perigee height: 484 km
apogee height: 678 km
right ascension of ascending node: 149.7022°
argument of perigee: 19.3818°
revolutions per day: 14.95387335
mean anomaly at epoch: 341.2337°
orbit number at epoch: 25824

The dashed part of the orbit path shows where the satellite is in the earth's shadow,  

DLR